#timestamp,LO_Frequency,Hit,StdDev 
1547852415.4,286047002.4,P
1547852435.3,286046999.9,N
1547852455.1,286046999.8,N
1547852456.0,286046999.8,N
1547852475.8,286047000.5,N
1547852495.7,286047000.0,N
1547852515.5,286047000.1,N
1547852535.3,286047003.4,Y
1547852555.2,286047001.9,P
1547852575.0,286047001.4,N
1547852575.9,286047001.4,N
1547852595.8,286047001.8,Y
1547852615.6,286047000.2,P
1547852635.4,286047002.8,P
1547852655.3,286046999.9,N
1547852675.1,286046999.8,N
1547852695.8,286047002.1,N
1547852715.7,286047002.3,N
1547852735.5,286047002.6,N
1547852755.4,286047001.8,N
1547852775.2,286047002.5,N
1547852795.0,286047001.7,N
1547852795.9,286047001.7,N
1547852815.8,286047002.7,N
1547852835.6,286047001.9,N
1547852855.4,286047002.6,N
1547852875.3,286046998.1,N
1547852895.1,286047000.8,N
1547852915.9,286047000.7,N
1547852935.7,286047000.4,N
1547852955.5,286047000.3,N
1547852975.4,286046998.1,N
1547852995.2,286047001.2,N
1547853015.0,286047000.6,N
1547853015.9,286047000.6,N
1547853035.8,286047000.6,N
1547853055.6,286046999.9,N
1547853075.5,286047001.6,N
1547853095.3,286047003.8,Y
1547853115.1,286047002.5,P
1547853135.9,286046999.9,N
1547853155.7,286047002.1,N
1547853175.5,286047001.7,N
1547853195.4,286047000.5,N
1547853215.2,286046998.6,N
1547853235.1,286046998.5,N
1547853236.0,286046998.5,N
1547853255.8,286046999.4,N
1547853275.6,286046999.4,N
1547853295.5,286046999.1,N
1547853315.3,286046999.6,N
1547853335.1,286046999.0,N
1547853355.9,286046997.1,N
1547853375.7,286046997.5,N
1547853395.6,286046998.0,N
1547853415.4,286046999.5,N
1547853435.2,286046996.6,N
1547853455.1,286046996.5,N
1547853456.0,286046996.5,N
1547853475.8,286046995.1,N
1547853495.6,286046995.4,N
1547853515.5,286046999.5,N
1547853535.3,286046996.9,N
1547853555.2,286046999.5,N
1547853575.9,286046999.0,N
1547853595.7,286046999.0,N
1547853615.6,286046999.4,N
1547853635.4,286046998.8,N
1547853655.2,286046996.5,N
1547853675.1,286046999.4,N
1547853676.0,286046999.4,N
1547853695.8,286047001.1,N
1547853715.7,286047000.7,N
1547853735.5,286046998.8,N
1547853755.3,286047001.0,N
1547853775.2,286047003.4,N
1547853795.9,286047003.3,N
1547853815.7,286047003.4,N
1547853835.6,286047004.1,N
1547853855.4,286047002.0,N
1547853875.2,286047000.0,N
1547853895.1,286047001.0,N
1547853896.0,286047001.0,N
1547853915.8,286047001.1,N
1547853935.7,286047001.0,N
1547853955.5,286047001.2,N
1547853975.3,286047000.6,N
1547853995.2,286046998.3,N
1547854015.0,286046999.8,N
1547854015.9,286046999.8,N
1547854035.7,286047000.8,N
1547854055.6,286047000.7,N
1547854075.4,286046999.8,N
1547854095.3,286047000.2,N
1547854115.1,286046998.6,N
1547854116.0,286046998.6,N
1547854135.8,286046998.7,N
1547854155.7,286046999.0,N
1547854175.5,286046998.9,N
1547854195.3,286046998.8,N
1547854215.2,286047000.2,N
1547854235.0,286047000.0,N
1547854235.9,286047000.0,N
1547854255.8,286046998.3,N
1547854275.6,286047001.0,N
1547854295.4,286047000.5,N
1547854315.3,286047001.0,N
1547854335.1,286046998.6,N
1547854355.8,286047000.4,N
1547854375.7,286046999.1,N
1547854395.5,286046999.1,N
1547854415.4,286046999.3,N
1547854435.2,286046999.4,N
1547854455.0,286046998.4,N
1547854455.9,286046998.4,N
1547854475.8,286046998.9,N
1547854495.6,286047002.8,Y
1547854515.4,286047002.3,P
1547854535.3,286047000.5,N
1547854555.1,286047002.7,N
1547854575.9,286047000.1,N
1547854595.7,286047002.8,N
1547854615.5,286047000.5,N
1547854635.4,286046999.9,N
1547854655.2,286046999.8,N
1547854675.0,286046999.7,N
1547854706.0,286047004.4,E
1547854715.9,286047000.4,N
1547854735.7,286046997.6,P
1547854755.6,286046995.4,P
1547854775.4,286046995.6,N
1547854795.3,286046993.3,Y
1547854815.1,286046996.9,P
1547854816.0,286046996.9,P
1547854835.8,286046996.8,P
1547854855.7,286046997.3,Y
1547854875.5,286047002.9,P
1547854895.3,286047004.1,N
1547854915.2,286047005.9,N
1547854935.0,286047007.4,N
1547854935.9,286047007.4,N
1547854955.8,286047005.0,N
1547854975.6,286047003.0,N
1547854995.4,286047004.2,N
1547855015.3,286047001.7,N
1547855035.1,286047003.6,N
1547855055.8,286047001.3,N
1547855075.7,286047002.3,N
1547855095.5,286046999.9,N
1547855115.4,286047001.1,N
1547855135.2,286047000.3,N
1547855155.0,286047002.4,N
1547855155.9,286047002.4,N
1547855175.8,286047000.9,N
1547855195.6,286047000.9,N
1547855215.4,286047001.0,N
1547855235.3,286047000.3,N
1547855255.1,286047000.7,N
1547855275.8,286047000.6,N
1547855295.7,286047000.2,N
1547855315.5,286047001.4,N
1547855335.4,286047005.5,N
1547855355.2,286047005.3,N
1547855375.0,286047003.3,N
1547855375.9,286047003.3,N
1547855395.8,286047003.6,N
1547855415.6,286047002.9,N
1547855435.4,286047001.7,N
1547855455.3,286047001.3,N
1547855475.1,286047003.1,N
1547855495.9,286047004.4,N
1547855515.7,286047002.4,N
1547855535.5,286047002.7,N
1547855555.4,286047004.0,N
1547855575.2,286047001.7,N
1547855595.0,286047003.8,N
1547855595.9,286047003.8,N
1547855615.8,286047002.2,N
1547855635.6,286047002.5,N
1547855655.5,286047000.2,N
1547855675.3,286047000.4,N
1547855695.1,286047001.1,N
1547855715.9,286047000.0,N
1547855735.7,286047002.8,N
1547855755.5,286047000.1,N
1547855775.4,286047001.6,N
1547855795.2,286047004.0,N
1547855815.1,286047004.0,N
1547855816.0,286047004.0,N
1547855835.8,286047002.1,N
1547855855.6,286047002.5,N
1547855875.5,286047001.9,N
1547855895.3,286047005.6,Y
1547855915.1,286047000.4,P
1547855935.9,286046998.5,N
1547855955.7,286046999.0,N
1547855975.6,286047000.8,N
1547855995.4,286046999.0,N
